Temp
84 96 100 97 86 85 74 70 79 76 77 82 83 79 75 77 74 66 84 85 86 87 88 88 80 79 79 80 79 79 79 79 79 79 79 79 79 79 79 80 80 80 80 80 81 80 81 81 81
99 97 99 98 81 73 70 79 74 77 79 83 84 83 79 73 82 81 83 86 87 87 86 86 79 79 78 78 79 79 79 79 79 79 79 79 79 79 80 80 80 80 80 80 80 80 80 81 81
97 98 96 92 81 73 70 77 78 80 82 82 80 84 80 72 83 82 85 88 89 86 85 83 78 78 78 78 79 79 79 79 79 79 79 79 79 79 79 79 80 80 80 80 79 79 79 79 80
100 99 100 82 73 77 76 78 82 82 83 86 85 75 76 79 83 85 85 87 88 89 86 82 78 78 79 79 78 78 78 78 79 79 78 78 78 78 78 78 79 79 79 79 79 78 78 79 78
101 98 83 77 74 77 81 83 84 78 78 81 83 72 68 74 82 84 84 87 86 88 87 86 78 78 78 79 78 78 78 78 78 78 78 78 78 78 78 78 78 78 78 78 78 78 77 78 78
95 96 81 74 73 77 80 84 83 79 80 81 78 72 63 72 77 79 85 87 88 87 87 86 79 77 77 77 77 77 77 77 77 77 77 77 77 77 77 77 78 78 78 78 78 77 77 77 78
91 90 80 78 73 74 76 83 80 78 79 73 80 68 64 67 74 78 81 84 84 85 83 80 81 80 77 76 75 75 75 75 75 75 75 75 76 76 76 76 76 77 77 77 77 77 76 76 76
100 93 80 80 76 72 76 78 79 74 70 78 75 70 61 65 71 73 75 77 80 83 82 82 83 83 82 84 74 74 74 74 75 75 74 75 77 76 76 77 75 75 76 77 77 76 75 75 75
96 88 79 77 77 73 80 77 77 76 68 68 67 66 65 68 69 69 71 74 78 79 81 77 75 72 77 81 78 77 75 74 73 74 74 78 84 84 85 74 73 73 73 74 74 73 73 73 74
93 86 76 82 81 79 79 78 75 70 68 62 63 65 67 69 69 72 72 70 76 76 77 76 70 70 72 73 74 76 80 71 69 73 72 71 73 75 77 75 71 71 72 72 71 71 71 75 86
86 80 81 80 82 83 78 75 75 70 62 63 59 61 64 65 68 71 72 72 71 76 79 82 79 80 82 80 82 83 84 82 82 79 78 76 75 79 74 76 82 76 71 81 79 79 81 76 77
78 81 81 79 80 80 76 76 69 68 60 65 64 65 65 63 63 63 64 68 70 75 77 81 82 82 79 84 83 83 83 81 81 81 79 79 80 80 80 82 80 79 81 70 65 64 67 70 66
80 79 80 80 80 80 79 71 68 62 64 66 66 65 63 63 64 66 66 71 76 74 75 78 78 77 78 78 80 80 80 80 79 80 79 79 79 78 79 79 80 80 82 81 79 77 69 66 64
81 80 79 80 78 77 72 68 68 65 68 67 69 69 68 67 67 67 73 74 74 75 75 77 77 75 76 76 76 78 78 79 79 79 77 77 77 71 77 78 79 79 80 80 79 79 78 77 73
81 74 76 76 76 75 78 65 58 68 66 66 66 68 69 69 71 72 75 73 75 75 76 75 77 76 74 74 76 77 79 78 78 77 76 75 75 72 68 70 75 75 76 75 77 77 78 78 79
78 78 70 75 76 75 74 61 62 70 68 65 65 67 70 72 72 75 74 74 75 76 75 75 76 75 73 73 75 76 77 76 77 76 76 74 72 73 72 71 68 67 74 75 75 76 76 76 77
77 75 72 68 76 75 75 63 65 66 67 64 69 71 72 73 73 74 75 76 74 74 74 74 74 73 72 73 74 74 73 74 74 75 73 69 71 72 68 71 71 70 72 72 72 74 74 73 74
75 73 73 71 74 74 71 59 61 64 67 64 71 72 72 73 69 71 74 75 74 74 73 72 73 71 71 73 73 74 74 73 74 73 71 69 70 69 67 66 66 67 67 69 67 67 72 72 73
81 77 72 73 71 71 70 64 62 66 68 70 71 71 71 69 72 73 74 75 73 72 71 70 69 68 69 71 69 69 69 70 71 70 68 68 69 69 68 69 64 66 64 64 66 67 67 69 73
78 74 69 67 70 70 67 64 63 65 68 72 71 71 72 73 70 72 73 73 71 70 70 69 68 67 68 70 69 68 69 70 69 70 68 67 68 68 68 67 67 66 67 67 66 66 66 68 69
77 75 69 70 68 69 68 58 60 65 70 72 72 73 74 73 71 71 71 70 71 69 68 68 68 67 67 66 69 68 70 70 68 67 64 66 68 68 67 67 67 66 66 65 64 65 64 63 66
73 75 73 69 64 64 70 60 58 61 66 67 68 71 74 71 72 71 70 69 69 69 70 69 68 67 68 67 66 62 64 63 64 64 65 66 66 65 64 63 64 65 64 63 63 64 63 62 60
69 77 73 70 70 65 65 60 60 62 61 63 66 68 72 73 72 69 69 68 69 70 69 69 68 68 67 66 65 65 63 65 63 63 61 63 64 61 64 60 62 63 62 64 63 64 63 61 61
75 71 71 71 71 61 65 62 58 58 63 64 69 71 72 73 70 69 69 70 70 72 72 71 69 68 68 67 66 63 62 61 61 62 62 64 62 63 63 57 62 63 60 62 62 62 63 63 59
74 69 63 61 55 59 65 62 58 65 69 68 71 72 72 71 70 69 69 70 70 70 70 71 69 66 67 67 67 64 62 60 62 60 64 63 63 62 59 60 58 58 62 62 64 63 63 63 61
74 72 64 51 56 61 63 56 57 69 73 73 73 74 71 69 70 70 69 69 70 69 68 69 68 66 67 67 66 65 64 65 62 65 65 66 63 64 64 62 56 55 60 63 64 62 63 61 55
73 68 74 64 67 61 61 62 65 68 67 69 65 65 68 69 67 68 68 69 68 68 68 68 68 67 67 66 64 64 65 60 62 64 64 67 65 66 65 66 65 66 66 63 61 60 60 60 60
76 77 65 68 52 49 57 57 55 62 65 68 67 68 68 67 68 68 68 67 68 68 69 68 68 66 67 66 66 66 64 61 60 62 64 64 64 65 66 66 66 66 66 63 61 57 58 61 60
73 71 69 66 63 54 54 51 66 65 68 69 72 71 68 65 68 63 68 67 69 69 69 68 67 66 68 68 65 63 61 61 64 62 65 65 64 65 65 66 66 66 66 65 64 65 66 65 65
74 68 68 61 55 60 59 52 69 69 70 69 70 68 67 68 66 69 67 67 68 68 68 67 66 67 68 69 66 65 61 58 62 63 64 66 64 64 65 66 66 67 66 66 66 67 68 67 66
MSLP
1011.58 1010.88 1010.09 1008.92 1007.40 1007.45 1008.71 1010.84 1011.18 1011.54 1012.07 1012.89 1013.12 1013.19 1014.17 1014.62 1014.66 1016.29 1018.10 1018.50 1018.51 1018.26 1018.50 1018.70 1019.52 1019.57 1019.69 1019.66 1019.69 1019.74 1019.79 1019.84 1019.98 1020.04 1020.01 1019.94 1020.02 1019.97 1019.91 1019.87 1019.73 1019.58 1019.43 1019.39 1019.25 1019.10 1018.82 1018.73 1018.76
1010.35 1010.14 1009.12 1007.04 1006.43 1007.01 1009.75 1010.86 1011.72 1012.47 1013.24 1013.34 1013.36 1013.70 1014.31 1015.44 1016.24 1017.22 1017.81 1018.38 1018.46 1018.58 1019.01 1019.18 1019.94 1019.88 1019.97 1020.05 1020.09 1020.27 1020.34 1020.36 1020.33 1020.41 1020.39 1020.38 1020.29 1020.27 1020.23 1020.20 1020.14 1019.94 1019.85 1019.71 1019.62 1019.44 1019.24 1019.12 1019.05
1010.48 1009.95 1007.30 1006.70 1006.99 1008.23 1010.19 1011.36 1012.15 1012.89 1013.40 1013.27 1013.68 1014.45 1015.54 1016.98 1017.07 1017.81 1018.72 1018.46 1018.66 1019.16 1019.57 1020.07 1020.40 1020.41 1020.55 1020.58 1020.48 1020.62 1020.63 1020.67 1020.71 1020.78 1020.75 1020.75 1020.74 1020.70 1020.66 1020.57 1020.52 1020.29 1020.21 1020.09 1019.99 1019.83 1019.74 1019.68 1019.48
1009.64 1008.47 1007.86 1007.57 1009.01 1010.33 1011.19 1012.02 1012.55 1012.92 1013.56 1013.62 1014.18 1015.60 1017.90 1018.70 1017.65 1018.50 1019.00 1019.12 1018.92 1019.07 1019.71 1020.51 1020.85 1020.79 1020.83 1020.88 1020.88 1020.87 1020.87 1020.92 1021.02 1021.13 1021.10 1021.05 1021.05 1021.04 1021.05 1021.00 1021.01 1020.80 1020.61 1020.51 1020.44 1020.20 1020.08 1019.99 1019.83
1009.24 1007.41 1007.38 1008.77 1010.28 1011.50 1012.07 1012.51 1012.56 1013.41 1013.96 1014.26 1014.90 1016.97 1018.82 1019.89 1019.55 1019.59 1019.46 1019.20 1019.48 1019.47 1019.85 1020.48 1021.05 1021.03 1021.13 1021.21 1021.24 1021.27 1021.22 1021.21 1021.12 1021.12 1021.26 1021.39 1021.25 1021.30 1021.27 1021.20 1021.19 1021.06 1021.11 1020.98 1020.83 1020.61 1020.50 1020.39 1020.24
1007.64 1006.88 1006.97 1008.70 1010.99 1012.37 1013.09 1013.30 1013.51 1014.29 1014.84 1015.37 1016.33 1018.10 1020.55 1020.95 1020.50 1020.36 1020.00 1019.80 1019.99 1020.13 1020.27 1020.55 1021.43 1021.57 1021.60 1021.69 1021.62 1021.60 1021.63 1021.49 1021.40 1021.52 1021.49 1021.47 1021.45 1021.45 1021.34 1021.34 1021.23 1021.18 1021.19 1021.16 1021.07 1020.95 1020.74 1020.55 1020.57
1007.26 1006.43 1007.74 1009.44 1011.38 1012.73 1013.86 1014.37 1014.63 1015.13 1015.69 1017.01 1017.20 1018.95 1021.38 1021.76 1021.68 1021.49 1021.29 1020.74 1020.74 1020.74 1021.15 1021.52 1021.67 1021.84 1022.16 1022.34 1022.32 1022.12 1022.12 1022.04 1022.00 1021.99 1021.96 1021.76 1021.55 1021.54 1021.39 1021.43 1021.33 1021.32 1021.19 1021.11 1021.16 1021.12 1021.08 1020.92 1020.84
1008.03 1007.43 1008.30 1009.70 1010.93 1013.08 1014.79 1015.39 1016.25 1016.95 1018.18 1018.50 1019.30 1019.77 1021.87 1022.57 1022.55 1022.41 1022.30 1022.11 1021.83 1021.93 1022.08 1021.91 1021.89 1021.89 1021.94 1022.19 1022.90 1022.80 1022.58 1022.56 1022.46 1022.27 1022.00 1021.71 1021.42 1021.24 1021.34 1021.17 1021.46 1021.44 1021.27 1021.23 1021.20 1021.11 1021.11 1021.12 1021.08
1008.47 1007.22 1008.56 1010.22 1011.11 1013.51 1014.99 1015.55 1017.39 1018.61 1019.55 1020.43 1021.32 1021.82 1022.74 1023.06 1023.12 1022.30 1022.87 1022.50 1022.48 1022.62 1022.61 1023.29 1023.45 1023.37 1023.04 1022.68 1023.04 1022.94 1022.98 1022.76 1022.88 1022.54 1022.39 1021.65 1021.05 1020.88 1020.60 1021.42 1021.71 1021.61 1021.56 1021.29 1021.25 1021.35 1021.30 1021.12 1020.99
1007.87 1008.09 1010.64 1011.89 1012.74 1013.57 1015.13 1015.95 1017.47 1018.95 1020.29 1021.66 1022.41 1023.11 1023.47 1023.39 1023.17 1022.86 1023.17 1023.06 1023.06 1023.20 1023.52 1023.79 1024.18 1024.04 1023.77 1023.71 1023.43 1023.16 1022.93 1023.20 1023.16 1022.86 1022.73 1022.63 1022.20 1021.90 1021.73 1021.62 1021.57 1021.53 1021.40 1021.42 1021.41 1021.43 1021.15 1020.82 1020.00
1009.86 1010.25 1012.23 1013.15 1013.73 1014.43 1015.77 1017.18 1018.65 1019.49 1021.20 1022.27 1023.10 1023.64 1024.01 1023.90 1023.76 1023.75 1023.73 1023.89 1024.00 1023.79 1023.53 1023.11 1023.58 1023.53 1022.94 1023.00 1022.73 1022.37 1022.36 1022.40 1022.27 1022.34 1022.42 1022.24 1022.04 1021.81 1021.80 1021.31 1021.00 1021.25 1021.48 1020.56 1020.74 1020.75 1020.69 1020.88 1021.12
1011.08 1012.40 1013.14 1014.38 1015.02 1015.44 1016.45 1018.16 1019.40 1020.60 1022.54 1023.24 1023.77 1024.20 1024.41 1024.46 1024.67 1024.80 1024.83 1024.72 1024.60 1024.03 1023.99 1023.58 1023.61 1023.49 1023.74 1023.05 1023.00 1022.96 1022.72 1022.81 1022.60 1022.47 1022.23 1021.87 1021.24 1020.85 1021.03 1020.89 1020.89 1021.05 1020.89 1021.61 1021.86 1021.88 1021.75 1021.61 1021.81
1012.02 1013.28 1014.17 1015.18 1015.77 1016.42 1017.36 1018.68 1020.05 1021.95 1023.03 1023.64 1024.09 1024.46 1024.65 1024.90 1025.02 1025.17 1025.19 1024.72 1024.20 1024.37 1024.49 1024.30 1024.39 1024.39 1024.17 1023.83 1023.63 1023.55 1023.35 1023.16 1023.12 1022.55 1022.35 1022.17 1021.51 1021.06 1020.97 1020.81 1020.65 1020.59 1020.54 1020.61 1020.73 1020.97 1021.26 1021.27 1021.82
1012.95 1013.83 1014.75 1015.55 1016.39 1017.37 1018.26 1019.65 1020.54 1022.46 1023.15 1023.55 1023.72 1024.12 1024.55 1024.87 1025.05 1025.06 1024.55 1024.58 1024.56 1024.79 1024.84 1024.71 1024.61 1024.84 1024.70 1024.43 1024.33 1023.87 1023.56 1023.30 1023.05 1022.81 1022.76 1022.46 1021.83 1022.01 1021.34 1020.76 1020.48 1020.38 1020.36 1020.18 1020.14 1019.90 1019.97 1019.98 1020.79
1013.32 1013.88 1015.11 1015.84 1016.41 1017.14 1017.78 1019.65 1021.40 1022.40 1023.18 1023.27 1023.76 1024.13 1024.36 1024.75 1024.68 1024.65 1024.65 1024.82 1024.77 1024.84 1024.86 1024.84 1024.76 1025.00 1025.06 1024.88 1024.60 1024.13 1023.66 1023.58 1023.13 1022.93 1022.86 1022.81 1022.50 1022.47 1022.52 1021.93 1021.04 1020.59 1020.84 1020.92 1020.17 1020.05 1019.72 1019.51 1019.14
1012.48 1013.22 1013.71 1015.37 1016.17 1016.98 1017.74 1019.21 1021.56 1022.03 1022.74 1023.20 1023.61 1023.88 1023.90 1024.11 1024.38 1024.45 1024.74 1024.78 1024.95 1024.83 1024.86 1025.14 1025.20 1025.29 1025.39 1025.29 1024.87 1024.39 1023.98 1023.98 1023.33 1023.20 1022.92 1022.84 1022.91 1022.37 1022.07 1021.82 1021.90 1021.57 1020.99 1020.49 1020.07 1019.68 1019.41 1019.16 1018.81
1011.62 1010.66 1012.52 1014.82 1015.81 1016.22 1017.03 1018.78 1021.29 1022.41 1022.45 1023.08 1022.93 1023.08 1023.27 1023.67 1024.06 1024.44 1024.63 1024.57 1025.11 1025.27 1025.33 1025.41 1025.59 1025.58 1025.62 1025.30 1025.03 1024.57 1024.24 1024.00 1023.71 1023.32 1023.21 1023.39 1023.01 1022.48 1022.47 1021.63 1021.23 1021.35 1020.90 1020.50 1019.93 1019.59 1019.26 1018.88 1018.78
1008.89 1010.70 1012.13 1013.29 1015.05 1015.99 1016.67 1019.30 1021.17 1022.05 1022.20 1022.72 1022.23 1022.47 1022.85 1023.22 1024.09 1024.72 1024.59 1024.80 1025.18 1025.48 1025.85 1026.01 1025.98 1026.12 1025.94 1025.36 1024.85 1024.40 1024.10 1023.97 1023.75 1023.47 1023.56 1023.64 1023.12 1022.80 1022.43 1022.00 1021.60 1021.33 1020.90 1020.13 1020.29 1020.15 1019.49 1019.15 1018.61
1009.48 1010.39 1011.75 1013.47 1015.49 1016.06 1016.76 1018.85 1020.47 1021.18 1021.55 1021.45 1021.62 1022.07 1022.49 1023.33 1024.01 1024.48 1024.74 1024.97 1025.30 1025.92 1026.16 1026.33 1026.36 1026.52 1026.21 1025.44 1025.11 1024.74 1024.32 1024.00 1023.77 1023.72 1023.92 1023.76 1023.19 1022.67 1022.27 1021.58 1021.73 1021.33 1020.98 1020.79 1020.60 1020.19 1019.68 1019.10 1018.24
1009.82 1010.86 1012.51 1014.85 1015.86 1016.37 1017.48 1018.52 1020.08 1020.77 1020.77 1020.81 1021.25 1021.69 1022.15 1022.79 1023.67 1024.15 1024.63 1025.25 1025.80 1026.24 1026.49 1026.66 1026.75 1026.74 1026.42 1025.91 1025.55 1025.37 1024.74 1024.10 1023.99 1023.65 1023.66 1023.50 1023.20 1022.67 1022.23 1021.86 1021.41 1021.22 1020.71 1020.29 1020.24 1019.99 1019.39 1019.09 1018.63
1010.04 1010.62 1012.38 1013.26 1015.47 1016.28 1016.98 1018.28 1019.39 1020.23 1020.32 1020.81 1021.24 1021.66 1021.81 1022.39 1023.30 1024.02 1024.71 1025.47 1025.87 1026.36 1026.69 1026.81 1026.85 1026.79 1026.62 1026.50 1025.42 1025.18 1024.36 1023.82 1023.85 1023.80 1023.66 1023.45 1022.92 1022.55 1022.02 1021.55 1021.14 1020.98 1020.69 1020.35 1020.12 1019.79 1019.50 1018.98 1018.64
1010.12 1011.87 1012.56 1013.67 1014.59 1014.20 1015.86 1015.84 1018.16 1019.32 1019.67 1020.50 1021.23 1021.35 1021.57 1022.85 1023.47 1024.25 1024.87 1025.57 1026.08 1026.38 1026.58 1026.81 1026.86 1026.79 1026.39 1026.34 1025.69 1025.51 1024.68 1024.27 1024.39 1024.01 1023.59 1023.03 1022.98 1022.58 1022.40 1022.08 1021.35 1020.78 1020.51 1020.32 1019.98 1019.68 1019.46 1019.26 1018.82
1012.46 1012.66 1013.13 1013.87 1013.72 1014.59 1014.96 1016.10 1017.06 1018.61 1018.98 1019.97 1020.91 1021.48 1021.84 1022.51 1023.43 1024.43 1025.18 1025.74 1026.16 1026.34 1026.45 1026.66 1026.68 1026.58 1026.43 1026.20 1026.03 1025.49 1025.14 1024.62 1024.66 1024.19 1023.94 1023.47 1023.02 1023.15 1022.54 1022.16 1021.46 1020.91 1020.66 1020.33 1019.99 1019.63 1019.33 1019.34 1019.14
1012.60 1013.22 1013.42 1013.33 1012.84 1012.54 1013.23 1015.19 1016.41 1017.85 1018.30 1019.45 1020.37 1021.10 1021.66 1022.58 1023.84 1024.69 1025.27 1025.64 1025.84 1025.96 1026.06 1026.17 1026.38 1026.32 1026.24 1026.06 1025.78 1025.74 1025.50 1025.33 1024.72 1024.33 1023.96 1023.20 1023.12 1022.66 1022.41 1022.55 1021.80 1021.40 1021.23 1020.57 1020.20 1019.87 1019.46 1019.20 1019.38
1012.61 1012.71 1011.54 1010.99 1011.89 1011.52 1013.88 1015.16 1016.82 1017.62 1018.15 1018.84 1019.65 1020.68 1021.62 1022.78 1023.68 1024.38 1024.77 1025.11 1025.54 1025.80 1026.00 1026.05 1026.14 1026.14 1026.06 1025.86 1025.69 1025.65 1025.60 1025.27 1024.53 1024.56 1023.79 1023.40 1022.96 1022.73 1022.95 1022.60 1022.33 1021.80 1021.15 1020.82 1020.17 1019.79 1019.50 1019.24 1019.37
1011.34 1011.93 1011.78 1011.23 1011.30 1012.06 1014.06 1015.37 1017.32 1018.06 1018.64 1019.11 1019.78 1020.62 1022.00 1022.93 1023.69 1024.21 1024.95 1025.30 1025.46 1025.85 1026.09 1026.08 1026.00 1026.02 1025.96 1025.69 1025.57 1025.50 1025.39 1024.94 1024.78 1024.21 1024.03 1023.36 1023.20 1022.82 1022.54 1022.54 1022.46 1022.18 1021.41 1020.51 1020.06 1020.09 1019.53 1019.72 1019.86
1011.29 1011.84 1012.51 1012.41 1012.10 1012.51 1014.00 1016.18 1018.02 1018.78 1019.44 1019.95 1020.96 1021.61 1022.19 1023.00 1023.96 1024.35 1025.00 1025.40 1025.67 1025.95 1026.10 1026.20 1026.16 1025.97 1025.78 1025.67 1025.72 1025.41 1025.23 1025.36 1024.86 1024.36 1024.04 1023.36 1023.17 1022.70 1022.57 1022.09 1021.68 1021.28 1020.79 1020.49 1020.26 1020.34 1020.12 1020.20 1020.34
1012.28 1012.88 1012.42 1011.98 1012.34 1013.13 1014.39 1016.23 1017.67 1018.53 1018.67 1019.58 1020.67 1021.23 1022.31 1023.35 1023.94 1024.60 1025.23 1025.72 1026.01 1026.07 1026.01 1026.27 1026.20 1025.99 1025.81 1025.75 1025.40 1025.41 1025.35 1025.30 1025.02 1024.55 1023.93 1023.67 1023.36 1022.94 1022.57 1022.18 1021.75 1021.32 1021.03 1020.87 1020.72 1020.77 1020.74 1020.45 1020.37
1012.55 1012.68 1013.45 1014.01 1014.34 1014.20 1014.56 1017.31 1018.75 1019.03 1019.32 1019.57 1019.91 1020.86 1022.43 1023.40 1023.91 1025.00 1025.15 1025.34 1025.85 1025.83 1025.79 1025.96 1025.99 1025.86 1025.63 1025.38 1025.75 1025.73 1025.71 1025.44 1024.72 1024.45 1023.91 1023.67 1023.31 1023.02 1022.73 1022.32 1021.89 1021.59 1021.33 1021.14 1020.90 1020.78 1020.53 1020.36 1020.17
1014.60 1014.78 1014.71 1014.19 1014.88 1015.95 1016.27 1018.47 1019.47 1019.84 1020.23 1020.72 1020.92 1022.06 1023.03 1023.62 1024.41 1024.67 1025.48 1025.48 1025.71 1025.71 1025.76 1025.87 1025.99 1025.69 1025.54 1025.37 1025.69 1025.44 1025.59 1025.48 1024.93 1024.48 1024.03 1023.60 1023.36 1023.25 1022.84 1022.52 1022.06 1021.78 1021.68 1021.52 1021.14 1020.74 1020.60 1020.46 1020.29
Wind_Speed
11 11 6 8 4 6 13 9 4 7 11 13 11 14 15 13 12 10 5 6 7 10 9 13 10 9 11 12 11 11 11 11 11 11 11 11 11 11 12 11 10 12 12 11 11 10 8 12 13
5 5 7 4 3 8 10 11 12 11 11 8 12 15 16 20 15 10 7 7 8 10 10 12 10 11 12 12 12 10 9 9 10 10 10 10 10 10 11 11 11 12 12 11 11 12 10 12 12
5 5 5 3 8 11 11 9 11 10 8 4 8 12 10 7 11 8 8 9 12 11 12 13 13 13 13 13 12 11 10 10 10 9 9 10 10 10 10 10 10 11 12 12 12 12 11 8 8
5 7 3 10 15 12 12 8 11 15 12 12 12 14 9 17 7 10 11 9 11 13 14 17 15 15 15 15 13 12 11 10 10 9 9 9 9 9 9 10 10 11 12 11 11 11 11 9 7
5 5 8 12 15 12 9 7 4 9 6 7 8 11 8 10 11 12 11 12 11 11 11 16 16 16 16 16 15 14 13 11 10 9 9 9 9 9 8 8 8 10 11 11 10 10 9 8 6
5 5 10 11 15 12 9 9 11 12 12 14 16 11 4 9 14 13 15 14 14 13 12 13 17 18 19 19 18 17 16 16 16 14 11 9 8 8 8 8 8 8 8 9 10 11 10 7 6
4 7 11 13 13 12 10 8 11 9 10 9 4 8 4 12 11 14 13 13 13 12 13 11 11 14 19 20 19 19 18 17 16 14 12 10 8 7 7 5 6 8 7 6 6 8 8 8 8
2 7 9 8 9 11 8 7 10 13 8 3 10 6 6 5 11 14 12 14 14 14 14 14 12 12 11 13 17 17 17 16 15 14 14 10 5 3 3 5 9 8 8 7 5 5 6 5 6
4 3 9 8 4 9 13 10 10 11 13 10 8 9 10 10 8 12 12 11 12 12 14 13 13 11 11 12 11 12 14 14 13 12 13 9 8 8 7 10 6 6 7 8 8 8 7 4 4
6 7 9 7 8 12 9 7 8 7 12 10 12 12 12 9 10 13 12 11 12 13 11 10 9 8 8 7 8 7 8 6 4 7 7 5 6 6 7 4 5 6 3 4 3 4 4 7 6
6 11 10 9 13 12 14 11 9 10 9 9 9 10 11 13 13 13 12 14 12 11 10 11 9 7 6 6 3 5 5 7 5 7 7 2 4 2 2 3 2 4 7 4 1 3 2 5 5
10 9 11 12 10 11 11 12 14 14 8 11 12 11 11 12 11 9 9 9 8 11 11 11 12 10 11 8 8 9 8 8 8 10 11 8 6 5 4 3 4 2 1 2 2 0 3 5 2
16 14 14 11 12 13 14 12 13 14 11 11 12 11 11 10 9 8 6 5 11 12 10 10 11 10 10 10 8 8 9 8 10 10 12 10 8 6 6 5 6 4 2 2 1 1 1 3 4
13 17 17 15 15 16 17 12 5 8 10 10 10 11 10 10 8 6 7 9 10 8 9 9 10 9 10 9 10 9 8 10 10 10 10 13 9 8 9 7 6 5 4 5 6 6 5 6 8
20 19 14 10 8 13 15 11 8 9 9 10 10 9 9 9 7 7 7 7 6 6 7 8 7 9 10 10 10 9 9 11 10 10 9 10 9 7 7 8 9 6 5 8 7 6 8 8 8
8 12 9 10 11 7 7 8 9 7 9 10 9 8 8 9 7 7 5 4 4 5 6 6 8 8 9 8 9 9 9 10 10 9 8 8 11 9 9 5 7 6 7 7 7 8 8 8 8
10 5 7 9 9 6 10 10 11 6 5 8 9 11 7 8 6 5 2 3 7 7 8 8 7 9 10 10 9 10 10 8 8 7 8 11 12 11 10 9 6 6 6 8 8 8 8 8 8
4 6 7 8 9 8 4 11 10 10 10 8 9 9 8 7 4 2 2 5 4 7 7 7 7 10 12 9 9 8 7 8 7 7 8 11 10 11 9 9 9 8 8 10 8 8 10 8 8
7 5 4 7 2 6 3 8 9 9 10 12 10 9 7 6 5 3 2 6 5 7 7 8 9 10 9 8 9 9 9 8 8 7 10 11 11 11 10 8 7 6 6 7 8 9 10 8 7
5 7 7 3 4 6 7 7 9 11 9 9 9 8 7 9 5 4 4 6 7 6 7 8 8 8 9 9 8 8 8 8 6 7 9 10 10 10 9 8 9 9 7 9 8 10 8 8 6
7 7 8 2 9 5 9 7 11 13 9 9 8 7 5 4 3 3 6 5 6 7 7 8 8 8 8 10 8 8 7 7 9 9 7 9 9 10 9 10 9 9 7 8 9 8 9 8 6
6 2 6 9 12 6 14 3 12 12 13 11 9 8 7 6 5 5 5 5 6 7 7 8 8 8 9 10 10 10 9 9 9 9 8 8 9 11 11 12 11 9 7 8 8 6 7 6 7
8 5 3 7 8 4 14 7 8 13 12 10 9 5 6 5 6 6 6 5 4 6 7 6 7 7 9 10 10 10 10 8 6 7 10 10 7 9 12 10 8 7 5 7 8 8 7 5 5
11 7 7 8 8 12 5 5 5 6 8 9 12 11 9 9 8 7 5 3 4 6 7 6 8 8 9 9 10 10 10 10 9 9 9 7 7 7 10 8 10 9 8 8 6 8 9 5 1
2 8 8 9 7 3 6 4 7 5 6 12 13 11 9 9 8 6 4 5 6 9 9 7 9 9 10 9 9 10 10 8 9 7 5 9 8 7 8 10 9 7 8 9 8 6 5 4 5
5 8 10 14 11 11 7 4 5 6 6 7 9 10 9 8 7 5 6 7 7 8 8 8 9 10 10 10 10 8 9 8 5 7 7 7 7 7 8 5 3 6 8 7 4 5 3 8 5
4 6 9 11 12 9 7 8 7 6 6 5 7 6 6 6 7 5 5 6 7 8 7 8 9 9 10 11 9 9 9 9 9 7 7 7 7 7 8 9 9 9 10 8 7 7 8 8 6
8 5 8 5 7 8 4 8 8 7 3 5 7 6 4 5 5 6 6 7 7 7 6 7 8 9 11 9 9 9 11 10 8 8 7 7 7 7 8 9 9 8 10 10 7 6 3 4 4
4 8 4 4 5 6 4 7 8 8 8 10 9 5 4 2 6 2 6 5 6 6 6 6 7 8 9 9 9 8 8 10 10 7 6 7 7 7 8 8 8 7 8 8 7 8 7 8 6
12 8 7 9 5 5 5 7 7 9 10 10 9 5 3 4 3 5 2 6 6 7 7 7 6 7 7 7 8 7 5 5 7 7 7 6 7 8 6 7 6 7 7 7 6 9 8 8 7
Wind_Direction
168 196 234 236 167 99 79 84 142 104 71 56 61 69 70 46 358 73 108 75 94 90 98 100 82 88 91 86 73 63 64 73 84 91 94 94 91 87 82 75 76 76 73 69 65 57 68 119 124
181 223 227 231 165 106 79 102 79 80 90 95 97 101 80 73 77 103 115 74 76 79 76 71 74 76 79 80 79 75 73 70 74 82 88 89 89 87 81 74 71 70 68 67 63 58 68 112 120
227 257 285 16 30 63 102 80 98 101 130 146 107 55 38 10 56 72 74 73 69 71 73 64 64 69 70 69 72 73 74 72 65 68 74 74 70 68 66 65 64 64 63 61 58 57 57 61 110
254 195 164 77 85 79 93 102 119 116 86 86 110 86 100 3 59 85 80 69 70 70 71 68 61 64 69 66 64 65 66 73 76 68 66 67 67 61 53 49 45 47 51 53 52 49 47 53 63
235 247 107 95 91 95 83 115 86 92 82 112 102 82 74 15 65 75 77 72 72 75 81 72 63 65 66 63 61 56 52 52 63 77 68 56 52 48 44 41 37 34 31 35 40 43 36 36 48
209 261 139 104 104 94 78 81 104 96 87 96 100 92 64 24 52 53 56 60 51 56 53 70 75 62 61 54 51 49 49 49 48 44 42 49 48 40 32 26 24 24 20 21 25 29 34 34 30
317 58 81 108 113 117 90 60 67 98 100 50 10 83 86 49 60 57 60 61 51 56 58 56 54 78 72 52 50 49 42 43 41 40 33 30 42 33 28 13 22 359 353 4 16 29 38 38 29
306 109 131 121 144 112 108 98 65 17 70 57 13 99 83 76 78 72 61 58 57 57 48 40 48 53 64 73 53 51 50 39 35 32 23 7 281 55 84 277 50 6 348 332 351 17 56 52 49
257 139 74 68 123 129 147 126 80 70 71 52 47 70 92 101 98 87 76 78 79 66 60 50 50 41 35 50 56 54 38 40 24 15 8 344 1 348 312 63 15 18 12 54 51 40 28 356 116
321 66 56 51 99 131 139 109 119 109 97 88 86 79 81 89 76 85 85 78 68 65 62 69 53 45 53 43 32 30 45 44 14 5 6 347 343 345 330 7 37 71 44 89 60 19 329 277 325
17 89 95 98 100 109 106 97 92 116 67 69 91 87 83 76 71 71 67 57 56 57 58 65 75 63 61 82 24 32 34 13 21 18 347 315 316 2 318 309 316 349 4 319 356 294 336 330 324
111 86 104 111 116 123 106 112 79 68 90 93 89 93 89 80 77 83 83 85 103 69 51 46 46 49 37 19 22 9 8 1 358 354 346 332 308 326 317 301 331 313 126 153 142 289 356 319 5
106 107 105 116 116 108 105 79 92 94 105 103 100 97 94 93 92 85 100 120 73 61 47 47 39 32 22 24 12 3 1 2 342 348 350 337 311 309 294 321 304 305 270 201 227 226 160 268 244
121 115 114 116 109 110 108 114 94 116 120 115 119 107 104 102 104 103 116 77 65 65 51 41 40 35 19 12 358 345 355 341 338 337 349 330 333 347 309 298 283 286 294 323 325 327 295 230 204
126 123 127 137 145 137 127 87 99 123 132 126 106 112 114 108 131 88 83 70 54 56 47 26 20 22 11 0 351 336 336 332 329 331 333 329 330 326 304 293 295 299 327 298 282 300 287 274 272
158 161 165 153 170 164 238 120 148 157 151 128 137 130 139 137 127 97 81 64 41 20 27 26 11 10 2 358 333 326 335 323 330 331 326 344 324 313 301 288 304 322 292 277 287 295 294 290 284
195 253 199 176 194 168 236 111 155 172 137 147 165 152 147 136 123 94 42 350 15 5 10 15 15 8 351 339 331 319 336 334 335 328 335 349 315 325 310 296 283 263 276 272 278 279 281 282 272
16 224 197 196 179 215 196 95 151 197 165 180 169 159 158 148 123 133 317 349 48 40 36 25 8 5 343 328 325 339 331 333 337 338 356 326 320 321 317 314 312 302 306 308 330 310 288 295 283
292 250 181 106 85 243 228 153 164 149 172 179 163 164 167 154 163 167 64 38 61 50 40 23 8 2 343 343 343 343 344 341 343 349 346 331 328 317 311 307 308 291 302 298 286 278 279 291 279
158 141 130 124 167 255 187 157 161 163 193 175 168 165 173 175 162 119 71 60 62 51 25 16 8 5 359 354 341 339 329 331 339 349 334 338 326 316 302 310 308 299 301 289 290 290 292 282 293
159 208 167 357 163 227 196 179 181 176 178 177 167 177 159 145 115 110 89 66 60 39 16 17 7 6 12 353 351 347 329 340 355 348 355 341 331 322 312 305 296 275 283 288 291 282 277 284 293
207 322 190 163 186 274 203 343 172 179 176 179 171 180 145 120 121 104 107 78 50 21 16 13 8 5 11 2 354 348 347 353 358 345 347 343 355 357 357 335 309 294 288 297 301 299 289 286 292
57 76 167 183 242 207 191 257 106 180 204 191 174 161 139 133 113 103 94 78 50 23 11 20 360 6 3 0 5 348 2 358 349 355 6 343 358 9 13 0 338 333 336 338 327 322 316 297 295
136 124 171 206 233 239 91 225 104 177 228 145 152 158 144 130 128 128 119 104 40 20 9 15 8 7 3 358 7 10 1 353 341 3 335 1 359 6 15 0 3 360 347 323 331 317 321 304 247
215 221 259 261 181 308 79 247 49 107 115 148 151 133 135 138 144 145 115 47 25 16 9 0 14 359 1 358 359 15 2 328 341 337 350 333 357 15 7 7 3 346 345 332 320 317 334 332 36
228 304 296 306 318 332 132 339 81 81 92 92 139 127 129 136 138 114 73 35 15 16 11 5 6 359 353 356 351 12 0 344 336 342 340 347 340 354 357 2 335 317 312 312 327 336 338 80 82
87 254 8 290 249 255 62 82 91 115 119 119 102 153 144 133 124 117 81 39 20 3 22 357 359 359 355 355 358 353 353 348 341 339 324 355 342 348 1 2 348 355 359 13 55 33 52 77 92
8 18 298 271 310 335 102 73 62 30 86 101 183 195 140 143 143 98 51 27 14 2 8 5 349 357 1 354 18 13 360 347 334 332 347 343 348 357 356 355 350 358 13 23 57 60 43 81 91
329 18 353 303 341 302 302 80 26 29 20 6 3 46 136 146 98 106 56 35 347 4 10 17 358 6 354 16 3 4 347 341 348 350 353 351 353 2 357 355 347 5 18 35 50 59 48 52 63
53 18 356 337 92 49 311 78 35 22 25 2 20 63 138 92 131 55 353 3 4 2 8 16 348 349 360 31 349 342 326 323 332 355 360 358 2 4 352 360 359 5 29 38 27 35 29 29 28